Погода в Солонешном

Россия / Алтайский край     51°38′52″N   84°19′28″E
темп.,
°C
ветер,
м/с
пор.,
м/с
влажн.,
%
обл.,
%
осадки,
мм/ч
давл.,
гПа
погр.,
м
18 мая, вт
вт1801:00+12ю22896 2.4 101628
04:00+12ю338886 0.0 101440
07:00+13ю36855 0.0 1013118
10:00+20юз611617 0.5 1011869
13:00+24зюз812505 0.5 10091858
16:00+21зюз612535 0.4 10081032
19:00+20юз6106096 0.6 1007402
22:00+14ссз2393100 3.1 1010105
19 мая, ср
ср1901:00+12ю3589100 4.1 100778
04:00+12ююз3485100 0.3 100665
07:00+14з2880100 0.6 1004201
10:00+16зюз61176100 0.8 1004712
13:00+13з41192100 5.6 1004634
16:00+14сз5785100 2.8 10051080
19:00+10с2596100 5.4 1007518
22:00+7ссв5991100 0.9 1008574
20 мая, чт
чт2001:00+6св3891100 2.4 1009797
04:00+6з0288100 1.5 1009299
07:00+2ссв4893100 2.4 1011487
10:00+3с3775100 1.3 10121151
13:00+5с3559100 1.9 10131325
16:00+8ссв364474 0.9 10122467
19:00+3с3786100 1.9 1016755
22:00+2сз2399100 1.6 1019156
21 мая, пт
пт2101:000сз1398100 3.1 1021180
04:000з119077 0.9 102365
07:000юз1187100 0.9 102580
10:00+2зсз127196 0.0 1027877
13:00+5зсз336887 0.7 10271298
16:00+8с125285 0.1 10271791
19:00+8св12502 0.1 10271388
22:00+2ююв227798 0.0 103017
22 мая, сб
сб2201:000юв22835 0.0 103116
04:00−1ююв228020 0.0 103120
07:00+1ююв226570 0.0 1031108
10:00+8ю124887 0.0 1029431
13:00+11зсз3347100 0.1 10271147
16:00+6ююв4783100 1.9 1029432
19:00+6ю3891100 2.4 1028286
22:00+5юв229130 0.1 102929